Location: Asheville, NC
(35.6000°N, 82.5500°W)
Time: 05:24:54
(UTC-04:00)

HO-68 - Pass Details

Date: 05 January 2018
Orbit: 1193 x 1204 km, 100.1° (Epoch: 22 April)

Event Time Altitude Azimuth Distance (km) Brightness Sun altitude
Rises 06:06:35 0° 34° (NE) 4,096 ? -18.6°
Reaches altitude 10° 06:10:23 10° 54° (NE) 3,127 ? -17.8°
Maximum altitude 06:14:46 17° 92° (E) 2,621 ? -17.0°
Drops below altitude 10° 06:19:08 10° 131° (SE) 3,118 ? -16.1°
Sets 06:22:52 0° 150° (SSE) 4,079 ? -15.4°
